Bookmark and Share
Track history (hours):
 

King of Scandinavia

Ship's website: http://www.dfds.co.uk/DSW/EN/OnBoard/na/KING.htm

Last reported at 2014-Apr-23 06:33 UTC. Time now 2014-Apr-23 07:18 UTC.
Position N 54°48' W 000°47'.

Length 166 m; beam 27.6 m; draft 6.2 m.

Type: Passenger vessel. MMSI: 220449000.

NotesDate/timePositionNaut miles runAvg speedWind from/ knotsBaromVisibWave heightAir tempDewpointWater temp
2014-Apr-23 06:33N 54°48' W 000°47'1918.5
2014-Apr-23 05:31N 54°37' W 000°20'1818.8
2014-Apr-23 04:33N 54°28' E 000°07'1716.9
2014-Apr-23 03:33N 54°19' E 000°32'17616.1
2014-Apr-22 16:33N 52°31' E 004°26'6 6.2
2014-Apr-22 15:33N 52°28' E 004°35'0 0.0
2014-Apr-22 14:32N 52°28' E 004°35'0 0.0
2014-Apr-22 13:32N 52°28' E 004°35'0 0.0
2014-Apr-22 12:32N 52°28' E 004°35'0 0.0
2014-Apr-22 11:32N 52°28' E 004°35'0 0.0
2014-Apr-22 10:32N 52°28' E 004°35'0 0.0
2014-Apr-22 09:32N 52°28' E 004°35'0 0.0
2014-Apr-22 08:29N 52°28' E 004°35'0 0.0
2014-Apr-22 07:33N 52°28' E 004°35'1110.8
2014-Apr-22 06:33N 52°34' E 004°21'1514.6
2014-Apr-22 05:34N 52°44' E 004°03'1515.1
2014-Apr-22 04:32N 52°54' E 003°44'13418.1
2014-Apr-21 21:06N 54°14' E 000°42'1018.8
2014-Apr-21 20:32N 54°20' E 000°27'1818.9
2014-Apr-21 19:34N 54°30' E 000°01'1918.9
2014-Apr-21 18:33N 54°41' W 000°26'1918.6
2014-Apr-21 17:33N 54°51' W 000°53'1 0.1
2014-Apr-21 06:33N 54°50' W 000°52'1515.2
2014-Apr-21 05:33N 54°42' W 000°30'1515.7
2014-Apr-21 04:33N 54°33' W 000°08'1716.6
2014-Apr-21 03:33N 54°24' E 000°16'1717.0
2014-Apr-21 02:33N 54°15' E 000°41'1716.9
2014-Apr-21 01:33N 54°06' E 001°05'1616.3
2014-Apr-21 00:33N 53°58' E 001°29'11515.8
2014-Apr-20 17:19N 52°46' E 003°59'1316.6
2014-Apr-20 16:33N 52°38' E 004°14'1515.4
2014-Apr-20 15:34N 52°28' E 004°34'1 0.8
2014-Apr-20 14:33N 52°28' E 004°35'0 0.0
2014-Apr-20 13:33N 52°28' E 004°35'0 0.0
2014-Apr-20 12:33N 52°28' E 004°35'0 0.0
2014-Apr-20 11:33N 52°28' E 004°35'0 0.0
2014-Apr-20 10:33N 52°28' E 004°35'0 0.0
2014-Apr-20 09:33N 52°28' E 004°35'0 0.0
2014-Apr-20 08:33N 52°28' E 004°35'0 0.1
2014-Apr-20 07:33N 52°28' E 004°35'1010.3
2014-Apr-20 06:33N 52°34' E 004°21'1413.8
2014-Apr-20 05:33N 52°43' E 004°04'15917.7
2014-Apr-19 20:34N 54°19' E 000°31'1919.2
2014-Apr-19 19:34N 54°29' E 000°03'2019.5
2014-Apr-19 18:33N 54°40' W 000°25'2019.4
2014-Apr-19 17:33N 54°51' W 000°53'2 0.1
2014-Apr-19 06:25N 54°50' W 000°51'2014.9
2014-Apr-19 05:07N 54°39' W 000°22'814.9
2014-Apr-19 04:33N 54°35' W 000°11'1716.9
2014-Apr-19 03:33N 54°25' E 000°14'16816.7
2014-Apr-18 17:32N 52°46' E 004°00'1414.6
2014-Apr-18 16:33N 52°36' E 004°18'1313.1
2014-Apr-18 15:33N 52°28' E 004°35'0 0.2
2014-Apr-18 14:31N 52°28' E 004°35'0 0.0
2014-Apr-18 13:31N 52°28' E 004°35'0 0.0
2014-Apr-18 12:31N 52°28' E 004°35'0 0.0
2014-Apr-18 11:28N 52°28' E 004°35'0 0.0
2014-Apr-18 10:31N 52°28' E 004°35'0 0.0
2014-Apr-18 09:31N 52°28' E 004°35'0 0.0
2014-Apr-18 08:31N 52°28' E 004°35'0 0.0
2014-Apr-18 07:33N 52°28' E 004°35'1111.1
2014-Apr-18 06:34N 52°35' E 004°21'1515.1
2014-Apr-18 05:33N 52°45' E 004°02'15717.4
2014-Apr-17 20:34N 54°19' E 000°31'1918.7
2014-Apr-17 19:34N 54°29' E 000°04'1919.1
2014-Apr-17 18:34N 54°38' W 000°24'2019.6
2014-Apr-17 17:33N 54°49' W 000°53'2 0.2
2014-Apr-17 06:33N 54°50' W 000°50'2316.4
2014-Apr-17 05:08N 54°37' W 000°17'916.6
2014-Apr-17 04:33N 54°32' W 000°03'1716.9
2014-Apr-17 03:33N 54°22' E 000°21'14616.1
2014-Apr-16 18:27N 52°56' E 003°40'1416.0
2014-Apr-16 17:33N 52°47' E 003°58'1616.3
2014-Apr-16 16:33N 52°36' E 004°19'1313.0
2014-Apr-16 15:33N 52°28' E 004°35'0 0.0
2014-Apr-16 14:33N 52°28' E 004°35'0 0.0
2014-Apr-16 13:33N 52°28' E 004°35'0 0.0
2014-Apr-16 12:30N 52°28' E 004°35'0 0.0
2014-Apr-16 11:33N 52°28' E 004°35'0 0.0
2014-Apr-16 10:33N 52°28' E 004°35'0 0.0
2014-Apr-16 09:33N 52°28' E 004°35'0 0.0
2014-Apr-16 08:33N 52°28' E 004°35'0 0.1
2014-Apr-16 07:33N 52°28' E 004°35'1111.4
2014-Apr-16 06:34N 52°35' E 004°20'12616.9
2014-Apr-15 23:07N 53°54' E 001°36'1918.4
2014-Apr-15 22:03N 54°04' E 001°09'917.8
2014-Apr-15 21:34N 54°09' E 000°56'1716.9
2014-Apr-15 20:34N 54°19' E 000°32'1717.1
2014-Apr-15 19:34N 54°28' E 000°07'1717.5
2014-Apr-15 18:34N 54°38' W 000°18'2219.3
2014-Apr-15 17:26N 54°49' W 000°50'1820.0
2014-Apr-15 16:33N 54°58' W 001°16'3 0.3
2014-Apr-15 06:32N 55°01' W 001°18'1616.0
2014-Apr-15 05:33N 54°52' W 000°55'3316.6
2014-Apr-15 03:34N 54°34' W 000°07'1616.2
2014-Apr-15 02:34N 54°25' E 000°16'17217.2
2014-Apr-14 16:33N 52°42' E 004°08'1313.0
2014-Apr-14 15:34N 52°33' E 004°23'9 8.7
2014-Apr-14 14:33N 52°28' E 004°35'0 0.0
2014-Apr-14 13:33N 52°28' E 004°35'0 0.0
2014-Apr-14 11:33N 52°28' E 004°35'0 0.0
2014-Apr-14 10:30N 52°28' E 004°35'0 0.0
2014-Apr-14 09:33N 52°28' E 004°35'0 0.0
2014-Apr-14 08:33N 52°28' E 004°35'0 0.0
2014-Apr-14 07:33N 52°28' E 004°35'0 0.1
2014-Apr-14 06:33N 52°28' E 004°35'10 9.8
2014-Apr-14 05:33N 52°33' E 004°22'17319.2
2014-Apr-13 20:34N 54°19' E 000°32'1817.5
2014-Apr-13 19:33N 54°29' E 000°06'1817.7
2014-Apr-13 18:34N 54°38' W 000°19'2118.3
2014-Apr-13 17:25N 54°49' W 000°49'1618.6
2014-Apr-13 16:33N 54°58' W 001°13'  

Dump ship's entire track history

sailing weather and tide predictions

King of Scandinavia — OVOL2 — position and weather